« Back
NWS Peachtree City, Ga » Text Product » GA Regional Weather Roundup


Printer-friendly Version
Current Version              Previous Versions:   1  2  3  4  5  6  7  8  9  

Regional Weather Roundup

957
ASUS42 KFFC 242203
RWRGA
WEATHER ROUNDUP FOR GEORGIA
NATIONAL WEATHER SERVICE PEACHTREE CITY GA
600 PM EDT SUN MAY 24 2015

NOTE: "FAIR" INDICATES FEW OR NO CLOUDS BELOW 12,000 FEET WITH NO
SIGNIFICANT WEATHER AND/OR OBSTRUCTIONS TO VISIBILITY.

* = USE WITH CAUTION. THE STATIONS MARKED WITH AN ASTERISK MAY NOT
REPORT WEATHER SUCH AS PRECIPITATION, FOG, OR THUNDER AND ARE NOT
QUALITY CONTROLLED BY NWS.

THE REMARK "TC" DENOTES TEMPERATURE READING IN DEGREES CELSIUS.

GAZ001>058-242300-
NORTH GEORGIA

CITY           SKY/WX    TMP DP  RH WIND       PRES   REMARKS
ATLANTA        MOSUNNY   83  57  41 SE9       30.23S
ATHENS         MOSUNNY   85  56  37 VRB6      30.25F
CHAMBLEE       MOSUNNY   80  58  46 SE8       30.23F
PEACHTREE CITY MOSUNNY   84  60  44 SE9       30.21F
ROME           CLOUDY    82  61  48 SE9       30.18F
WEST ATLANTA   PTSUNNY   83  58  42 SE6       30.22S
GAINESVILLE    MOSUNNY   77  56  48 E7        30.28F
CARTERSVILLE   SUNNY     83  58  42 SE6       30.20F


CITY           SKY/WX    TMP DP  RH WIND       PRES   REMARKS
DALTON*        MOSUNNY   81  59  47 SE14      30.21F
LAWRENCEVILLE* PTSUNNY   82  55  39 SE12      30.23F
KENNESAW*      MOSUNNY   82  61  47 E10G18    30.23F
BLAIRSVILLE*     N/A     76  18  11 SE10G16   30.29S
$$

GAZ059>098-102>109-242300-
CENTRAL GEORGIA

CITY           SKY/WX    TMP DP  RH WIND       PRES   REMARKS
AUGUSTA-BUSH   SUNNY     85  55  35 SE13      30.24S
AUGUSTA-DANIEL SUNNY     85  54  34 S9        30.26S
COLUMBUS       MOSUNNY   85  61  44 SE13      30.17F
MACON          MOSUNNY   88  58  36 SE10      30.21F


CITY           SKY/WX    TMP DP  RH WIND       PRES   REMARKS
LAGRANGE*      MOSUNNY   86  68  55 SE8G16    30.20S
SYLVANIA*      MOSUNNY   83  63  50 SE10      30.27S
MILLEDGEVILLE* MOSUNNY   86  61  42 E3        30.23S
$$

GAZ099>101-110>166-242300-
SOUTH GEORGIA

CITY           SKY/WX    TMP DP  RH WIND       PRES   REMARKS
SAVANNAH       PTSUNNY   79  63  57 E17       30.27S
VALDOSTA       SUNNY     86  61  42 E8G16     30.18S
ALMA           MOSUNNY   82  59  45 E13G21    30.22F
FT STEWART     MOSUNNY   82  64  54 E17       30.24S
ALBANY         MOSUNNY   89  59  36 SE12      30.18F
HUNTER AFB     PTSUNNY   78  65  64 E16G24    30.25S
MOODY AFB      MOSUNNY   87  60  40 SE12      30.18S
BRUNSWICK      PTSUNNY   81  64  57 NE13      30.26S


CITY           SKY/WX    TMP DP  RH WIND       PRES   REMARKS
BAINBRIDGE*    SUNNY     95  68  41 SE10      30.14F HX  99
MOULTRIE*      SUNNY     86  59  39 SE9G17    30.18S
VIDALIA*       PTSUNNY   84  57  39 E15       30.23F
WAYCROSS*      MOSUNNY   84  62  47 E14       30.22F
DOUGLAS*       MOSUNNY   86  55  35 E10       30.22S
$$



USA.gov is the U.S. government's official web portal to all federal, state and local government web resources and services.